TimeEDT,TemperatureF,Dew PointF,Humidity,Sea Level PressureIn,VisibilityMPH,Wind Direction,Wind SpeedMPH,Gust SpeedMPH,PrecipitationIn,Events,Conditions,WindDirDegrees,DateUTC
12:15 AM,75.2,73.4,94,30.03,10.0,ENE,5.8,-,N/A,,Clear,60,2013-08-23 04:15:00
12:35 AM,75.2,73.4,94,30.01,10.0,ENE,4.6,-,N/A,,Clear,70,2013-08-23 04:35:00
12:55 AM,75.2,73.4,94,30.00,10.0,NE,5.8,-,N/A,,Clear,50,2013-08-23 04:55:00
1:15 AM,75.2,73.4,94,29.99,10.0,NE,8.1,-,N/A,,Clear,50,2013-08-23 05:15:00
1:35 AM,75.2,73.4,94,29.99,10.0,ENE,8.1,-,N/A,,Clear,70,2013-08-23 05:35:00
1:55 AM,75.2,73.4,94,29.99,10.0,ENE,6.9,-,N/A,,Clear,70,2013-08-23 05:55:00
2:15 AM,75.2,73.4,94,30.00,10.0,East,5.8,-,N/A,,Clear,80,2013-08-23 06:15:00
2:35 AM,75.2,73.4,94,29.99,10.0,ENE,5.8,-,N/A,,Clear,70,2013-08-23 06:35:00
2:55 AM,75.2,73.4,94,29.98,10.0,ENE,4.6,-,N/A,,Clear,70,2013-08-23 06:55:00
3:15 AM,75.2,75.2,100,29.97,10.0,ENE,5.8,-,N/A,,Clear,60,2013-08-23 07:15:00
3:35 AM,75.2,75.2,100,29.97,10.0,ENE,6.9,-,N/A,,Clear,60,2013-08-23 07:35:00
3:55 AM,75.2,75.2,100,29.97,10.0,ENE,8.1,-,N/A,,Clear,60,2013-08-23 07:55:00
4:15 AM,75.2,75.2,100,29.96,10.0,ENE,5.8,-,N/A,,Clear,70,2013-08-23 08:15:00
4:35 AM,75.2,75.2,100,29.97,10.0,ENE,5.8,-,N/A,,Clear,70,2013-08-23 08:35:00
4:55 AM,75.2,75.2,100,29.97,10.0,East,5.8,-,N/A,,Clear,80,2013-08-23 08:55:00
5:15 AM,75.2,75.2,100,29.97,10.0,ENE,4.6,-,N/A,,Clear,60,2013-08-23 09:15:00
5:35 AM,75.2,75.2,100,29.97,10.0,ENE,5.8,-,N/A,,Clear,60,2013-08-23 09:35:00
5:55 AM,75.2,75.2,100,29.97,10.0,ENE,3.5,-,N/A,,Clear,60,2013-08-23 09:55:00
6:15 AM,75.2,73.4,94,29.97,10.0,East,3.5,-,N/A,,Clear,80,2013-08-23 10:15:00
6:35 AM,75.2,75.2,100,29.98,10.0,ENE,5.8,-,N/A,,Clear,70,2013-08-23 10:35:00
6:55 AM,75.2,75.2,100,29.98,10.0,ENE,5.8,-,N/A,,Clear,70,2013-08-23 10:55:00
7:15 AM,75.2,75.2,100,29.98,8.0,East,5.8,-,N/A,,Clear,80,2013-08-23 11:15:00
7:35 AM,75.2,75.2,100,29.99,9.0,East,5.8,-,N/A,,Clear,100,2013-08-23 11:35:00
7:55 AM,75.2,75.2,100,29.99,10.0,East,9.2,-,N/A,,Clear,80,2013-08-23 11:55:00
8:15 AM,77.0,75.2,94,30.00,10.0,East,9.2,-,N/A,,Clear,80,2013-08-23 12:15:00
8:35 AM,77.0,77.0,100,30.00,10.0,East,9.2,-,N/A,,Clear,90,2013-08-23 12:35:00
8:55 AM,80.6,77.0,89,30.01,10.0,East,9.2,-,N/A,,Clear,90,2013-08-23 12:55:00
9:15 AM,80.6,77.0,89,30.00,10.0,East,10.4,-,N/A,,Clear,100,2013-08-23 13:15:00
9:35 AM,82.4,77.0,84,30.00,10.0,ESE,6.9,-,N/A,,Clear,110,2013-08-23 13:35:00
9:55 AM,82.4,77.0,84,30.00,10.0,East,11.5,-,N/A,,Clear,90,2013-08-23 13:55:00
10:15 AM,84.2,77.0,79,30.01,10.0,East,10.4,-,N/A,,Clear,90,2013-08-23 14:15:00
10:35 AM,84.2,77.0,79,30.01,10.0,SE,6.9,-,N/A,,Clear,130,2013-08-23 14:35:00
10:55 AM,84.2,77.0,79,30.02,10.0,East,6.9,-,N/A,,Scattered Clouds,100,2013-08-23 14:55:00
11:15 AM,86.0,77.0,74,30.02,10.0,ESE,8.1,-,N/A,,Mostly Cloudy,110,2013-08-23 15:15:00
11:35 AM,86.0,75.2,70,30.02,10.0,ESE,4.6,-,N/A,,Scattered Clouds,120,2013-08-23 15:35:00
11:55 AM,86.0,75.2,70,30.02,10.0,East,9.2,-,N/A,,Partly Cloudy,90,2013-08-23 15:55:00
12:15 PM,87.8,75.2,66,30.01,10.0,East,9.2,-,N/A,,Scattered Clouds,80,2013-08-23 16:15:00
12:35 PM,86.0,75.2,70,30.01,10.0,SSE,5.8,-,N/A,,Mostly Cloudy,150,2013-08-23 16:35:00
12:55 PM,89.6,75.2,62,30.01,10.0,SSE,6.9,-,N/A,,Scattered Clouds,150,2013-08-23 16:55:00
1:15 PM,87.8,77.0,70,30.01,10.0,SW,9.2,-,N/A,,Scattered Clouds,220,2013-08-23 17:15:00
1:35 PM,86.0,77.0,74,30.00,10.0,SSW,9.2,-,N/A,,Scattered Clouds,200,2013-08-23 17:35:00
1:55 PM,87.8,75.2,66,29.99,10.0,SSW,9.2,-,N/A,,Partly Cloudy,210,2013-08-23 17:55:00
2:15 PM,87.8,75.2,66,29.98,10.0,SSW,9.2,-,N/A,,Clear,210,2013-08-23 18:15:00
2:35 PM,87.8,73.4,62,29.98,10.0,SW,10.4,-,N/A,,Clear,230,2013-08-23 18:35:00
2:55 PM,89.6,75.2,62,29.98,10.0,SW,9.2,-,N/A,,Clear,230,2013-08-23 18:55:00
3:15 PM,87.8,75.2,66,29.97,10.0,SW,10.4,-,N/A,,Clear,230,2013-08-23 19:15:00
3:35 PM,87.8,73.4,62,29.97,10.0,WSW,9.2,-,N/A,,Clear,240,2013-08-23 19:35:00
3:55 PM,87.8,73.4,62,29.98,10.0,West,8.1,-,N/A,,Clear,260,2013-08-23 19:55:00
4:15 PM,87.8,75.2,66,29.97,10.0,West,5.8,-,N/A,,Clear,270,2013-08-23 20:15:00
4:35 PM,84.2,71.6,66,29.98,10.0,ENE,9.2,-,N/A,,Mostly Cloudy,70,2013-08-23 20:35:00
4:55 PM,86.0,73.4,66,29.98,10.0,ENE,9.2,-,N/A,,Mostly Cloudy,60,2013-08-23 20:55:00
5:15 PM,86.0,71.6,62,29.98,10.0,East,9.2,-,N/A,,Mostly Cloudy,90,2013-08-23 21:15:00
5:35 PM,84.2,71.6,66,29.99,10.0,East,9.2,-,N/A,,Mostly Cloudy,100,2013-08-23 21:35:00
5:55 PM,80.6,69.8,70,29.99,9.0,SE,12.7,16.1,N/A,,Mostly Cloudy,140,2013-08-23 21:55:00
6:15 PM,80.6,71.6,74,29.97,8.0,SE,9.2,-,N/A,,Partly Cloudy,140,2013-08-23 22:15:00
6:35 PM,77.0,71.6,83,29.98,4.0,SE,8.1,-,N/A,Rain,Light Rain,140,2013-08-23 22:35:00
6:55 PM,78.8,73.4,83,29.98,5.0,South,5.8,-,N/A,Rain,Light Rain,180,2013-08-23 22:55:00
7:15 PM,78.8,75.2,89,29.99,10.0,SE,5.8,-,N/A,,Clear,130,2013-08-23 23:15:00
7:35 PM,77.0,73.4,89,29.99,10.0,East,4.6,-,N/A,,Scattered Clouds,100,2013-08-23 23:35:00
7:55 PM,78.8,71.6,78,29.99,8.0,ENE,6.9,-,N/A,,Mostly Cloudy,70,2013-08-23 23:55:00
8:15 PM,77.0,73.4,89,29.99,10.0,NE,5.8,-,N/A,,Partly Cloudy,50,2013-08-24 00:15:00
8:35 PM,77.0,73.4,89,30.01,10.0,NE,4.6,-,N/A,,Mostly Cloudy,40,2013-08-24 00:35:00
8:55 PM,77.0,73.4,89,30.01,10.0,ENE,9.2,-,N/A,,Overcast,60,2013-08-24 00:55:00
9:15 PM,77.0,73.4,89,30.02,10.0,NE,8.1,-,N/A,,Overcast,40,2013-08-24 01:15:00
9:35 PM,77.0,75.2,94,30.01,10.0,East,4.6,-,N/A,,Mostly Cloudy,100,2013-08-24 01:35:00
9:55 PM,77.0,75.2,94,30.01,10.0,ESE,4.6,-,N/A,,Clear,110,2013-08-24 01:55:00
10:15 PM,77.0,75.2,94,30.02,10.0,East,4.6,-,N/A,,Clear,100,2013-08-24 02:15:00
10:35 PM,77.0,75.2,94,30.02,10.0,East,5.8,-,N/A,,Clear,80,2013-08-24 02:35:00
10:55 PM,77.0,75.2,94,30.02,10.0,East,6.9,-,N/A,,Clear,90,2013-08-24 02:55:00
11:15 PM,77.0,75.2,94,30.02,10.0,East,8.1,-,N/A,,Clear,100,2013-08-24 03:15:00
11:35 PM,77.0,73.4,89,30.02,10.0,ENE,6.9,-,N/A,,Clear,70,2013-08-24 03:35:00
11:55 PM,77.0,73.4,89,30.03,10.0,ENE,6.9,-,N/A,,Clear,70,2013-08-24 03:55:00